DW4847 Weather Reports


time (UTC)temp
C
wind
direction
speed
KPH
gust
KPH
rain 1hr
cm
rain 24hr
cm
rain mn
cm
humidity
%
barometer
mb
20260510002101 9 164 1.6 3.2 0.00 1.35 1.35 92 1009.5
20260510001534 9 163 0.0 0.0 0.00 1.35 1.35 91 1009.5
20260510001042 9 163 0.0 1.6 0.00 1.35 1.35 91 1009.5
20260510000537 9 163 0.0 1.6 0.00 1.35 1.35 91 1009.4
20260510000048 9 163 0.0 3.2 0.00 1.35 1.35 91 1009.5
20260509235533 9 163 1.6 3.2 0.00 1.35 1.35 91 1009.4
20260509235047 9 121 0.0 0.0 0.00 1.35 1.35 92 1009.4
20260509234533 9 121 0.0 0.0 0.00 1.35 1.35 92 1009.5
20260509234048 9 121 0.0 0.0 0.00 1.35 1.35 91 1009.4
20260509233543 9 121 0.0 0.0 0.00 1.35 1.35 91 1009.3
20260509233028 9 121 0.0 0.0 0.00 1.35 1.35 91 1009.4
20260509232523 9 121 0.0 1.6 0.00 1.35 1.35 91 1009.4
20260509232029 9 121 0.0 1.6 0.00 1.35 1.35 91 1009.4
20260509231541 9 121 0.0 3.2 0.00 1.35 1.35 91 1009.2
20260509231036 9 111 0.0 1.6 0.00 1.35 1.35 91 1009.3
20260509230538 9 113 0.0 1.6 0.00 1.35 1.35 91 1009.4
20260509230032 9 111 0.0 3.2 0.00 1.35 1.35 91 1009.5
20260509225547 9 111 1.6 3.2 0.00 1.35 1.35 91 1009.4
20260509225034 9 111 0.0 1.6 0.00 1.35 1.35 91 1009.6
20260509224549 9 111 0.0 3.2 0.00 1.35 1.35 91 1009.5
20260509224034 9 111 0.0 3.2 0.00 1.35 1.35 90 1009.5
20260509223529 9 125 0.0 4.8 0.00 1.35 1.35 90 1009.5
20260509223104 10 107 0.0 1.6 0.00 1.35 1.35 90 1009.5
20260509222529 10 124 0.0 1.6 0.00 1.35 1.35 90 1009.5
20260509222044 10 124 0.0 6.4 0.00 1.35 1.35 90 1009.4
20260509221538 10 175 1.6 6.4 0.00 1.35 1.35 90 1009.3
20260509221024 10 132 1.6 4.8 0.03 1.35 1.35 90 1009.4
20260509220538 10 284 0.0 4.8 0.03 1.35 1.35 90 1009.5
20260509220053 10 169 0.0 4.8 0.03 1.35 1.35 90 1009.5
20260509215536 10 169 1.6 4.8 0.03 1.35 1.35 90 1009.5
20260509215051 10 163 0.0 3.2 0.03 1.35 1.35 91 1009.5
20260509214545 10 209 0.0 8.0 0.03 1.35 1.35 90 1009.4
20260509214031 10 209 1.6 8.0 0.05 1.35 1.35 90 1009.4
20260509213545 10 281 0.0 3.2 0.05 1.35 1.35 90 1009.5
20260509213032 10 71 0.0 4.8 0.10 1.35 1.35 90 1009.5
20260509212527 10 155 0.0 4.8 0.10 1.35 1.35 90 1009.6
20260509212034 10 169 1.6 4.8 0.13 1.35 1.35 90 1009.7
20260509211528 9 130 1.6 4.8 0.15 1.35 1.35 90 1009.7
20260509211039 10 193 1.6 4.8 0.13 1.32 1.32 90 1009.7
20260509210525 9 32 1.6 6.4 0.15 1.32 1.32 90 1009.6
20260509210040 9 246 0.0 6.4 0.15 1.32 1.32 90 1009.7
20260509205555 10 323 1.6 6.4 0.18 1.32 1.32 89 1009.7
20260509205039 10 139 0.0 8.0 0.18 1.32 1.32 89 1009.7
20260509204533 10 184 0.0 6.4 0.18 1.32 1.32 90 1009.8
20260509204048 10 335 1.6 6.4 0.18 1.30 1.30 90 1009.8
20260509203533 10 130 3.2 6.4 0.15 1.27 1.27 90 1010.0
20260509203045 10 302 1.6 4.8 0.15 1.24 1.24 91 1009.9
20260509202530 10 170 1.6 4.8 0.15 1.24 1.24 91 1010.0
20260509202032 10 169 0.0 8.0 0.15 1.22 1.22 90 1010.2
20260509201538 10 219 3.2 8.0 0.15 1.19 1.19 90 1010.3
20260509201053 10 188 1.6 14.5 0.18 1.19 1.19 91 1010.3
20260509200527 10 205 4.8 14.5 0.18 1.17 1.17 92 1010.3
20260509200034 10 217 1.6 8.0 0.18 1.17 1.17 92 1010.4
20260509195546 10 300 1.6 6.4 0.18 1.14 1.14 93 1010.4
20260509195038 10 186 1.6 3.2 0.18 1.14 1.14 93 1010.3
20260509194525 10 254 0.0 3.2 0.20 1.14 1.14 93 1010.4
20260509194039 10 248 0.0 4.8 0.18 1.12 1.12 93 1010.5
20260509193534 10 196 0.0 1.6 0.20 1.12 1.12 93 1010.4
20260509193039 10 196 0.0 1.6 0.18 1.09 1.09 93 1010.5
20260509192534 9 128 0.0 1.6 0.18 1.09 1.09 93 1010.5
20260509192035 9 128 0.0 1.6 0.18 1.07 1.07 93 1010.4
20260509191527 9 128 0.0 1.6 0.15 1.04 1.04 93 1010.5
20260509191101 9 127 0.0 1.6 0.13 1.02 1.02 93 1010.4
20260509190528 9 127 0.0 0.0 0.10 0.99 0.99 93 1010.4
20260509190023 9 127 0.0 1.6 0.13 0.99 0.99 92 1010.4
20260509185538 9 127 0.0 3.2 0.10 0.97 0.97 92 1010.5
20260509185054 9 127 0.0 3.2 0.13 0.97 0.97 92 1010.6
20260509184538 9 87 0.0 0.0 0.10 0.94 0.94 92 1010.5
20260509184033 8 87 0.0 0.0 0.10 0.94 0.94 92 1010.4
20260509183548 8 87 0.0 0.0 0.08 0.91 0.91 92 1010.4
20260509183031 8 87 0.0 0.0 0.08 0.91 0.91 92 1010.5
20260509182544 8 87 0.0 1.6 0.10 0.91 0.91 92 1010.5
20260509182027 8 84 0.0 0.0 0.08 0.89 0.89 92 1010.5
20260509181541 8 84 0.0 1.6 0.08 0.89 0.89 92 1010.5
20260509181052 8 84 0.0 1.6 0.08 0.89 0.89 92 1010.5
20260509180532 8 150 0.0 1.6 0.05 0.86 0.86 92 1010.6
20260509180026 8 150 0.0 1.6 0.08 0.86 0.86 92 1010.6
20260509175531 8 150 0.0 3.2 0.08 0.86 0.86 92 1010.6
20260509175023 8 151 0.0 3.2 0.05 0.84 0.84 91 1010.6
20260509174535 8 153 1.6 3.2 0.05 0.84 0.84 92 1010.7
20260509174035 8 140 1.6 3.2 0.08 0.84 0.84 92 1010.8
20260509173526 8 159 0.0 4.8 0.08 0.84 0.84 92 1010.7
20260509173031 8 159 1.6 4.8 0.08 0.84 0.84 92 1010.8
20260509172611 8 152 0.0 3.2 0.05 0.81 0.81 92 1010.8
20260509172035 8 151 0.0 1.6 0.05 0.81 0.81 92 1010.9
20260509171527 8 151 0.0 4.8 0.08 0.81 0.81 92 1010.9
20260509171041 8 153 1.6 4.8 0.08 0.81 0.81 91 1011.1
20260509170532 8 153 1.6 4.8 0.08 0.81 0.81 91 1011.1
20260509170037 8 140 0.0 1.6 0.05 0.79 0.79 92 1011.2
20260509165531 8 157 0.0 3.2 0.05 0.79 0.79 91 1011.3
20260509165045 8 157 0.0 1.6 0.08 0.79 0.79 91 1011.3
20260509164531 8 158 0.0 3.2 0.08 0.79 0.79 91 1011.4
20260509164044 8 158 0.0 3.2 0.05 0.76 0.76 92 1011.3
20260509163539 8 157 1.6 3.2 0.05 0.76 0.76 91 1011.4
20260509163054 8 149 1.6 3.2 0.05 0.76 0.76 91 1011.3
20260509162539 8 166 1.6 3.2 0.05 0.76 0.76 91 1011.3
20260509162033 7 166 1.6 3.2 0.05 0.76 0.76 91 1011.4
20260509161548 7 221 0.0 1.6 0.03 0.74 0.74 91 1011.5
20260509161034 7 327 0.0 3.2 0.05 0.74 0.74 91 1011.5
20260509160545 7 37 1.6 3.2 0.05 0.74 0.74 91 1011.6
20260509160031 7 123 0.0 3.2 0.05 0.74 0.74 91 1011.6
20260509155525 7 117 0.0 1.6 0.05 0.74 0.74 91 1011.6
20260509155029 7 117 0.0 1.6 0.03 0.71 0.71 91 1011.5
20260509154523 7 117 0.0 1.6 0.03 0.71 0.71 91 1011.6
20260509154058 7 113 0.0 1.6 0.03 0.71 0.71 91 1011.7
20260509153549 7 113 0.0 1.6 0.03 0.71 0.71 91 1011.7
20260509153034 7 110 0.0 1.6 0.03 0.71 0.71 91 1011.7
20260509152528 7 102 0.0 1.6 0.03 0.71 0.71 91 1011.7
20260509152035 7 182 0.0 1.6 0.05 0.71 0.71 91 1011.7
20260509151537 7 182 0.0 1.6 0.05 0.71 0.71 91 1011.8
20260509151024 7 183 0.0 1.6 0.03 0.69 0.69 91 1011.8
20260509150538 7 183 0.0 1.6 0.05 0.69 0.69 92 1011.8
20260509150024 6 183 0.0 1.6 0.05 0.69 0.69 92 1011.8
20260509145538 6 183 0.0 3.2 0.05 0.69 0.69 92 1011.8
20260509145033 6 183 0.0 3.2 0.08 0.69 0.69 91 1011.9
20260509144541 6 183 0.0 1.6 0.08 0.69 0.69 92 1011.9
20260509144035 6 183 0.0 1.6 0.08 0.69 0.69 92 1012.0
20260509143523 6 182 0.0 1.6 0.08 0.69 0.69 92 1011.9
20260509143037 6 182 0.0 0.0 0.08 0.69 0.69 92 1012.0
20260509142532 6 182 0.0 1.6 0.08 0.69 0.69 92 1012.1
20260509142036 6 182 0.0 0.0 0.05 0.66 0.66 92 1012.1
20260509141551 5 182 0.0 1.6 0.05 0.66 0.66 92 1012.1
20260509141045 5 181 0.0 1.6 0.08 0.66 0.66 92 1012.2
20260509140556 5 182 0.0 1.6 0.05 0.64 0.64 92 1012.2
20260509140040 5 182 0.0 3.2 0.05 0.64 0.64 92 1012.2
20260509135535 5 183 0.0 3.2 0.03 0.61 0.61 92 1012.2
20260509135049 5 196 0.0 3.2 0.03 0.61 0.61 92 1012.2
20260509134532 5 229 0.0 1.6 0.03 0.61 0.61 92 1012.2
20260509134047 5 232 0.0 1.6 0.03 0.61 0.61 93 1012.1
20260509133532 5 205 0.0 3.2 0.03 0.61 0.61 93 1012.2
20260509133025 5 209 0.0 3.2 0.05 0.61 0.61 92 1012.3
20260509132531 5 211 0.0 1.6 0.05 0.61 0.61 92 1012.4
20260509132026 5 211 0.0 0.0 0.05 0.61 0.61 93 1012.5
20260509131541 5 211 0.0 1.6 0.05 0.61 0.61 93 1012.5
20260509131027 5 221 0.0 1.6 0.03 0.58 0.58 92 1012.6
20260509130601 5 229 0.0 0.0 0.03 0.58 0.58 93 1012.5
20260509130034 4 231 0.0 0.0 0.05 0.58 0.58 93 1012.6
20260509125608 4 234 0.0 1.6 0.05 0.58 0.58 93 1012.7
20260509125053 4 234 0.0 1.6 0.05 0.58 0.58 93 1012.5
20260509124525 4 234 0.0 3.2 0.05 0.58 0.58 93 1012.6
20260509124040 4 236 0.0 3.2 0.05 0.58 0.58 93 1012.7
20260509123525 4 268 0.0 0.0 0.05 0.58 0.58 93 1012.5
20260509123040 4 268 0.0 0.0 0.03 0.56 0.56 93 1012.6
20260509122526 4 271 0.0 1.6 0.03 0.56 0.56 93 1012.7
20260509122037 4 287 0.0 0.0 0.03 0.56 0.56 93 1012.6
20260509121551 4 290 0.0 0.0 0.03 0.56 0.56 93 1012.6
20260509121048 4 290 0.0 0.0 0.03 0.56 0.56 93 1012.6
20260509120530 4 291 0.0 0.0 0.03 0.56 0.56 93 1012.6
20260509120045 4 291 0.0 0.0 0.00 0.53 0.53 93 1012.7
20260509115558 4 291 0.0 0.0 0.03 0.53 0.53 93 1012.6
20260509115044 4 291 0.0 0.0 0.03 0.53 0.53 93 1012.7
20260509114537 3 291 0.0 0.0 0.05 0.53 0.53 93 1012.7
20260509114053 3 291 0.0 0.0 0.05 0.53 0.53 93 1012.7
20260509113547 3 291 0.0 0.0 0.05 0.53 0.53 93 1012.7
20260509113031 3 291 0.0 0.0 0.08 0.53 0.53 93 1012.8
20260509112525 3 291 0.0 0.0 0.10 0.53 0.53 93 1012.8
20260509112040 3 291 0.0 0.0 0.10 0.53 0.53 93 1012.8
20260509111525 3 292 0.0 0.0 0.13 0.53 0.53 93 1012.9
20260509111039 3 293 0.0 0.0 0.13 0.53 0.53 93 1013.0
20260509110525 3 293 0.0 0.0 0.15 0.53 0.53 93 1013.0
20260509110055 3 293 0.0 0.0 0.18 0.53 0.53 93 1013.0
20260509105529 3 293 0.0 0.0 0.18 0.51 0.51 93 1013.1
20260509105044 3 293 0.0 0.0 0.18 0.51 0.51 93 1013.0
20260509104550 3 293 0.0 0.0 0.18 0.48 0.48 93 1013.1
20260509104112 3 293 0.0 0.0 0.20 0.48 0.48 93 1013.2
20260509103536 3 293 0.0 0.0 0.23 0.48 0.48 93 1013.2
20260509103023 3 292 0.0 0.0 0.23 0.46 0.46 93 1013.4
20260509102606 3 293 0.0 0.0 0.23 0.43 0.43 93 1013.3
20260509102029 3 293 0.0 0.0 0.23 0.43 0.43 92 1013.3
20260509101544 2 293 0.0 0.0 0.23 0.41 0.41 93 1013.2
20260509101055 2 293 0.0 0.0 0.23 0.41 0.41 92 1013.2
20260509100549 2 293 0.0 0.0 0.23 0.38 0.38 92 1013.1
20260509100034 2 293 0.0 0.0 0.20 0.36 0.36 92 1013.0
20260509095529 2 293 0.0 0.0 0.20 0.33 0.33 92 1013.0
20260509095043 2 293 0.0 0.0 0.20 0.33 0.33 92 1012.9
20260509094526 2 293 0.0 0.0 0.20 0.30 0.30 92 1013.0
20260509094037 2 293 0.0 0.0 0.18 0.28 0.28 92 1013.0
20260509093552 2 293 0.0 0.0 0.18 0.25 0.25 92 1013.0
20260509093037 2 293 0.0 0.0 0.15 0.23 0.23 92 1012.9
20260509092531 2 293 0.0 0.0 0.15 0.20 0.20 92 1013.0
20260509092047 2 293 0.0 0.0 0.15 0.20 0.20 92 1013.0
20260509091534 2 293 0.0 0.0 0.15 0.18 0.18 92 1012.9
20260509091048 2 293 0.0 0.0 0.15 0.18 0.18 92 1012.8
20260509090602 2 293 0.0 0.0 0.15 0.15 0.15 92 1012.7
20260509090025 2 293 0.0 0.0 0.15 0.15 0.15 92 1012.7
20260509085539 2 293 0.0 0.0 0.13 0.13 0.13 91 1012.9
20260509085026 2 292 0.0 0.0 0.13 0.13 0.13 91 1012.9
20260509084540 2 293 0.0 0.0 0.10 0.10 0.10 91 1012.9
20260509084027 1 296 0.0 1.6 0.10 0.10 0.10 91 1013.0
20260509083610 1 296 0.0 1.6 0.08 0.08 0.08 91 1013.0
20260509083034 1 296 0.0 0.0 0.08 0.08 0.08 91 1012.9
20260509082549 1 296 0.0 0.0 0.05 0.05 0.05 91 1012.9
20260509082032 1 296 0.0 0.0 0.05 0.05 0.05 91 1012.9
20260509081546 1 296 0.0 0.0 0.03 0.03 0.03 91 1012.8
20260509081054 1 296 0.0 0.0 0.00 0.00 0.00 91 1012.8
20260509080548 1 296 0.0 0.0 0.00 0.00 0.00 91 1012.7
20260509080032 1 296 0.0 0.0 0.00 0.00 0.00 91 1012.5
20260509075526 1 296 0.0 0.0 0.00 0.00 0.00 91 1012.4
20260509075032 1 296 0.0 0.0 0.00 0.00 0.00 91 1012.4
20260509074526 1 296 0.0 0.0 0.00 0.00 0.00 91 1012.4
20260509074040 1 296 0.0 0.0 0.00 0.00 0.00 91 1012.3
20260509073524 0 296 0.0 0.0 0.00 0.00 0.00 91 1012.3
20260509073038 0 296 0.0 0.0 0.00 0.00 0.00 91 1012.3
20260509072524 0 296 0.0 0.0 0.00 0.00 0.00 91 1012.4
20260509072039 0 296 0.0 0.0 0.00 0.00 0.00 91 1012.4
20260509071525 0 296 0.0 0.0 0.00 0.00 0.00 91 1012.5
20260509071109 0 296 0.0 0.0 0.00 0.00 0.00 91 1012.4
20260509070534 0 296 0.0 0.0 0.00 0.00 0.00 90 1012.4
20260509070046 0 296 0.0 0.0 0.00 0.00 0.00 90 1012.4
20260509065531 0 296 0.0 0.0 0.00 0.00 0.00 90 1012.4
20260509065026 0 296 0.0 0.0 0.00 0.00 0.00 90 1012.4
20260509064532 0 296 0.0 0.0 0.00 0.00 0.00 90 1012.5
20260509064027 0 296 0.0 0.0 0.00 0.00 0.00 89 1012.5
20260509063541 0 296 0.0 0.0 0.00 0.00 0.00 89 1012.5
20260509063046 0 296 0.0 0.0 0.00 0.00 0.00 89 1012.6
20260509062539 0 296 0.0 0.0 0.00 0.00 0.00 89 1012.6
20260509062034 0 296 0.0 0.0 0.00 0.00 0.00 89 1012.6
20260509061603 0 296 0.0 0.0 0.00 0.00 0.00 89 1012.6
20260509061027 0 296 0.0 1.6 0.00 0.00 0.00 89 1012.7
20260509060538 0 296 0.0 1.6 0.00 0.00 0.00 89 1012.8
20260509060024 0 296 0.0 0.0 0.00 0.00 0.00 89 1012.7
20260509055536 0 296 0.0 0.0 0.00 0.00 0.00 89 1012.7
20260509055023 0 296 0.0 0.0 0.00 0.00 0.00 89 1012.8
20260509054536 0 296 0.0 0.0 0.00 0.00 0.00 89 1012.9
20260509054030 0 296 0.0 0.0 0.00 0.00 0.00 89 1012.9
20260509053537 0 296 0.0 0.0 0.00 0.00 0.00 89 1012.9
20260509053032 0 296 0.0 0.0 0.00 0.00 0.00 88 1012.9
20260509052546 0 296 0.0 0.0 0.00 0.00 0.00 88 1012.9
20260509052032 0 296 0.0 0.0 0.00 0.00 0.00 88 1012.8
20260509051547 0 296 0.0 0.0 0.00 0.00 0.00 88 1012.7
20260509051034 0 296 0.0 0.0 0.00 0.00 0.00 88 1012.8
20260509050529 0 296 0.0 0.0 0.00 0.00 0.00 88 1012.8
20260509050104 0 296 0.0 0.0 0.00 0.00 0.00 87 1012.8
20260509045527 0 296 0.0 0.0 0.00 0.00 0.00 87 1012.7
20260509045021 0 296 0.0 0.0 0.00 0.00 0.00 87 1012.7
20260509044527 0 296 0.0 0.0 0.00 0.00 0.00 87 1012.6
20260509044021 0 296 0.0 0.0 0.00 0.00 0.00 87 1012.6
20260509043555 0 296 0.0 0.0 0.00 0.00 0.00 87 1012.7
20260509043045 0 296 0.0 0.0 0.00 0.00 0.00 87 1012.8
20260509042540 0 296 0.0 0.0 0.00 0.00 0.00 87 1012.7
20260509042024 0 296 0.0 0.0 0.00 0.00 0.00 87 1012.7
20260509041600 0 296 0.0 0.0 0.00 0.00 0.00 86 1012.7
20260509041032 0 296 0.0 0.0 0.00 0.00 0.00 86 1012.7
20260509040537 0 296 0.0 0.0 0.00 0.00 0.00 86 1012.7
20260509040048 0 296 0.0 0.0 0.00 0.00 0.00 86 1012.7
20260509035601 0 296 0.0 0.0 0.00 0.00 0.00 86 1012.7
20260509035035 0 296 0.0 0.0 0.00 0.00 0.00 86 1012.6
20260509034522 0 296 0.0 0.0 0.00 0.00 0.00 85 1012.7
20260509034036 1 296 0.0 0.0 0.00 0.00 0.00 85 1012.6
20260509033523 1 296 0.0 0.0 0.00 0.00 0.00 85 1012.7
20260509033034 1 296 0.0 0.0 0.00 0.00 0.00 85 1012.6
20260509032549 1 296 0.0 0.0 0.00 0.00 0.00 84 1012.6
20260509032035 1 296 0.0 0.0 0.00 0.00 0.00 84 1012.5
20260509031529 1 296 0.0 0.0 0.00 0.00 0.00 84 1012.5
20260509031036 1 296 0.0 0.0 0.00 0.00 0.00 84 1012.5
20260509030530 1 296 0.0 0.0 0.00 0.00 0.00 83 1012.5
20260509030044 1 296 0.0 0.0 0.00 0.00 0.00 83 1012.4
20260509025528 1 296 0.0 0.0 0.00 0.00 0.00 83 1012.3
20260509025022 1 296 0.0 0.0 0.00 0.00 0.00 83 1012.4
20260509024523 1 296 0.0 0.0 0.00 0.00 0.00 82 1012.4
20260509024039 1 296 0.0 0.0 0.00 0.00 0.00 82 1012.4
20260509023525 1 296 0.0 0.0 0.00 0.00 0.00 82 1012.3
20260509022544 2 296 0.0 0.0 0.00 0.00 0.00 81 1012.3
20260509022029 2 296 0.0 0.0 0.00 0.00 0.00 81 1012.2
20260509021524 2 296 0.0 0.0 0.00 0.00 0.00 80 1012.1
20260509021038 2 296 0.0 0.0 0.00 0.00 0.00 80 1012.0
20260509020524 2 296 0.0 0.0 0.00 0.00 0.00 79 1012.0
20260509020038 2 296 0.0 0.0 0.00 0.00 0.00 79 1012.0
20260509015525 2 296 0.0 0.0 0.00 0.00 0.00 79 1012.0
20260509015100 2 296 0.0 0.0 0.00 0.00 0.00 79 1012.0
20260509014533 3 296 0.0 0.0 0.00 0.00 0.00 78 1011.9
20260509014049 3 296 0.0 0.0 0.00 0.00 0.00 77 1011.9
20260509013534 3 296 0.0 0.0 0.00 0.00 0.00 77 1011.9
20260509013049 3 296 0.0 0.0 0.00 0.00 0.00 76 1011.7
20260509012523 3 296 0.0 0.0 0.00 0.00 0.00 76 1011.8
20260509012058 3 296 0.0 1.6 0.00 0.00 0.00 75 1011.6
20260509011548 3 296 0.0 1.6 0.00 0.00 0.00 74 1011.5
20260509011031 4 297 0.0 0.0 0.00 0.00 0.00 74 1011.4
20260509010546 4 297 0.0 0.0 0.00 0.00 0.00 73 1011.4
20260509010031 5 297 0.0 0.0 0.00 0.00 0.00 72 1011.2
20260509005526 5 297 0.0 0.0 0.00 0.00 0.00 72 1011.1
20260509005033 5 297 0.0 0.0 0.00 0.00 0.00 72 1011.0
20260509004527 5 297 0.0 0.0 0.00 0.00 0.00 71 1011.0
20260509004038 5 297 0.0 0.0 0.00 0.00 0.00 71 1010.9
20260509003524 5 297 0.0 0.0 0.00 0.00 0.00 69 1010.8
20260509003039 6 297 0.0 0.0 0.00 0.00 0.00 69 1010.8
20260509002526 6 297 0.0 1.6 0.00 0.00 0.00 68 1010.6